Duluth, MN

2:12 AM CST on February 24, 2017 (GMT -0600)
Duluth International

Weather History for KDLH - March, 2014

Change the Weather History Date:

Monday, March 17, 2014

  Actual Average Record
Temperature  
Mean Temperature 22 °F 26 °F  
Max Temperature 27 °F 35 °F 75 °F (2012)
Min Temperature 17 °F 18 °F -15 °F (1941)
Degree Days  
Heating Degree Days 43 39  
Month to date heating degree days 840 713  
Since 1 July heating degree days 8281 7580  
Cooling Degree Days 0 0  
Month to date cooling degree days 0 0  
Year to date cooling degree days 0 0  
Moisture  
Dew Point 13 °F    
Average Humidity 68    
Maximum Humidity 74    
Minimum Humidity 61    
Precipitation  
Precipitation 0.01 in 0.05 in 1.72 in (1965)
Month to date precipitation 0.21 0.76  
Year to date precipitation 3.06 2.53  
Snow  
Snow 0.30 in 0.40 in 17.20 in (1965)
Month to date snowfall 6.3 8.4  
Since 1 July snowfall 90.1 74.0  
Snow Depth 22.00 in    
Sea Level Pressure  
Sea Level Pressure 29.75 in    
Wind  
Wind Speed 10 mph (SSE)    
Max Wind Speed 17 mph    
Max Gust Speed 23 mph    
Visibility 8 miles    
Events Snow    
T = Trace of Precipitation, MM = Missing Value Source: NWS Daily Summary

Daily Weather History Graph

Daily Weather History Graph

Search for Another Location

Airport or City:

Trip Planner

Search our weather history database for the weather conditions in past years. The results will help you decide how hot, cold, wet, or windy it might be!

Date:

Astronomy

Mar. 17, 2014 Rise Set
Actual Time 7:17 AM CDT 7:17 PM CDT
Civil Twilight 6:47 AM CDT 7:47 PM CDT
Nautical Twilight 6:12 AM CDT 8:23 PM CDT
Astronomical Twilight 5:35 AM CDT 8:59 PM CDT
Moon 8:41 PM CDT (3/17) 7:28 AM CDT (3/17)
Length of Visible Light 13h 00m
Length of Day
11h 59m
Full, 99% of the Moon is Illuminated
Mar 17
Full
Mar 23
Last Quarter
Mar 30
New
Apr 7
First Quarter
Apr 15
Full

Hourly Weather History & Observations

Time (CDT) Temp. Windchill Dew Point Humidity Pressure Visibility Wind Dir Wind Speed Gust Speed Precip Events Conditions
12:55 AM 18.0 °F 4.8 °F 3.9 °F 54% 29.99 in 5.0 mi South 12.7 mph - 0.00 in Snow Light Snow
1:14 AM 17.1 °F 3.0 °F 7.0 °F 65% 29.88 in 5.0 mi South 13.8 mph - 0.00 in Snow Light Snow
1:26 AM 17.1 °F 5.0 °F 7.0 °F 65% 29.87 in 5.0 mi South 10.4 mph - 0.00 in Snow Light Snow
1:55 AM 18.0 °F 6.9 °F 6.1 °F 60% 29.96 in 9.0 mi South 9.2 mph - 0.00 in Snow Light Snow
2:55 AM 19.0 °F 7.5 °F 5.0 °F 54% 29.90 in 10.0 mi SSE 10.4 mph - 0.00 in   Overcast
3:28 AM 18.0 °F 4.8 °F 6.1 °F 60% 29.79 in 4.0 mi SSE 12.7 mph - 0.00 in Snow Light Snow
3:48 AM 17.1 °F 2.5 °F 9.0 °F 71% 29.77 in 0.5 mi SSE 15.0 mph 23.0 mph 0.00 in Snow Snow
3:55 AM 17.1 °F 3.6 °F 10.9 °F 77% 29.84 in 0.8 mi SSE 12.7 mph 23.0 mph 0.01 in Snow Light Snow
4:00 AM 17.1 °F 4.3 °F 10.9 °F 77% 29.76 in 2.0 mi SSE 11.5 mph - 0.00 in Snow Light Snow
4:03 AM 17.1 °F 4.3 °F 10.9 °F 77% 29.75 in 4.0 mi SSE 11.5 mph - 0.00 in Snow Light Snow
4:11 AM 18.0 °F 4.8 °F 10.0 °F 71% 29.75 in 9.0 mi SSE 12.7 mph - 0.00 in Snow Light Snow
4:55 AM 18.0 °F 5.4 °F 8.1 °F 65% 29.81 in 9.0 mi SSE 11.5 mph - 0.00 in Snow Light Snow
5:55 AM 18.0 °F 6.1 °F 10.0 °F 71% 29.79 in 5.0 mi SSE 10.4 mph - 0.00 in Snow Light Snow
6:55 AM 18.0 °F 5.4 °F 10.0 °F 71% 29.76 in 9.0 mi SSE 11.5 mph - 0.00 in Snow Light Snow
7:55 AM 19.9 °F 7.3 °F 10.0 °F 65% 29.75 in 10.0 mi South 12.7 mph - 0.00 in   Overcast
8:41 AM 19.9 °F 6.7 °F 10.9 °F 68% 29.65 in 10.0 mi South 13.8 mph - N/A   Overcast
8:55 AM 19.9 °F 7.9 °F 12.0 °F 71% 29.72 in 10.0 mi South 11.5 mph - N/A   Overcast
9:55 AM 21.0 °F 9.3 °F 12.9 °F 71% 29.70 in 9.0 mi SSE 11.5 mph - 0.00 in Snow Light Snow
10:55 AM 21.9 °F 9.2 °F 14.0 °F 72% 29.70 in 9.0 mi SSE 13.8 mph - 0.00 in Snow Light Snow
11:55 AM 24.1 °F 12.5 °F 15.1 °F 69% 29.69 in 10.0 mi South 12.7 mph - 0.00 in   Overcast
12:55 PM 25.0 °F 14.2 °F 16.0 °F 69% 29.68 in 10.0 mi South 11.5 mph - N/A   Overcast
1:55 PM 26.1 °F 14.5 °F 17.1 °F 69% 29.67 in 10.0 mi South 13.8 mph - N/A   Overcast
2:55 PM 26.1 °F 15.0 °F 17.1 °F 69% 29.66 in 10.0 mi SSE 12.7 mph - N/A   Overcast
3:55 PM 27.0 °F 16.7 °F 18.0 °F 69% 29.67 in 10.0 mi SSE 11.5 mph - N/A   Overcast
4:55 PM 26.1 °F 16.2 °F 17.1 °F 69% 29.66 in 10.0 mi SSE 10.4 mph - N/A   Overcast
5:55 PM 26.1 °F 16.8 °F 17.1 °F 69% 29.68 in 10.0 mi SSE 9.2 mph - N/A   Overcast
6:55 PM 25.0 °F 14.2 °F 17.1 °F 72% 29.69 in 10.0 mi SE 11.5 mph - N/A   Overcast
7:55 PM 24.1 °F 16.0 °F 17.1 °F 75% 29.72 in 10.0 mi SSE 6.9 mph - N/A   Overcast
8:55 PM 24.1 °F 17.0 °F 17.1 °F 75% 29.75 in 10.0 mi SSE 5.8 mph - N/A   Overcast
9:06 PM 24.1 °F 16.0 °F 17.1 °F 75% 29.68 in 10.0 mi SSE 6.9 mph - N/A   Overcast
9:55 PM 24.1 °F 16.0 °F 17.1 °F 75% 29.76 in 10.0 mi SE 6.9 mph - N/A   Overcast
10:09 PM 24.1 °F 16.0 °F 17.1 °F 75% 29.68 in 10.0 mi ESE 6.9 mph - N/A   Overcast
10:16 PM 24.1 °F 16.0 °F 17.1 °F 75% 29.68 in 10.0 mi ESE 6.9 mph - N/A   Overcast
10:39 PM 24.1 °F 16.0 °F 17.1 °F 75% 29.69 in 10.0 mi East 6.9 mph - N/A   Overcast
10:55 PM 24.1 °F 17.0 °F 17.1 °F 75% 29.77 in 10.0 mi East 5.8 mph - N/A   Overcast
11:55 PM 24.1 °F 16.0 °F 18.0 °F 77% 29.77 in 10.0 mi ESE 6.9 mph - N/A   Overcast